Вернуться в каталог

STARLINK-34927

АктивенСвязьSSO
NORAD 65196·PAYLOAD·🇺🇸 United States

Запущен Aug 14, 2025 с Vandenberg Space Force Base

Loading…

Ближайшие Пролёты (ближайшие 24 часа)

TLE

СвежийSource: CelesTrak SupGP

Эпоха: Sep 15, 2026, 03:32 UTC

1 65196C 25175Y   26258.14770833  .00013522  00000+0  41963-3 0  2589
2 65196  97.2843 127.2071 0002037  95.8848 223.6496 15.33439373    10

Отслеживайте STARLINK-34927 в реальном времени с AllMySat

Download on the App Store